Location: Brivio
(45.7333°N, 9.4500°E)
Time: 23:18:38
(UTC+00:00)

N. Korean satellite - Pass Details

Date: 17 December 2019
Orbit: 454 x 507 km, 97.2° (Epoch: 21 January)

Event Time Altitude Azimuth Distance (km) Brightness Sun altitude
Rises 05:08:44 0° 14° (NNE) 2,523 10.2 -18.0°
Reaches altitude 10° 05:10:49 10° 17° (NNE) 1,632 9.2 -17.7°
Maximum altitude 05:14:18 67° 101° (E) 507 6.8 -17.1°
Drops below altitude 10° 05:17:42 10° 185° (S) 1,596 9.3 -16.5°
Sets 05:19:44 0° 188° (S) 2,461 10.3 -16.2°
